[[[{"header":{"parameterUnit":"kt","parameterCategory":2,"dx":1,"dy":1,"la1":30.253999710083008,"la2":30.299108505249023,"lo1":-89.0895004272461,"lo2":-89.04439544677734,"nx":28,"ny":28,"refTime":"2022-10-22T21:00:00:Z","depth":0,"parameterNumber":1,"parameterNumberName":"U-component_of_WINDS"},"data":[-6.6171,-6.6295,-6.6323,-6.6478,-6.6529,-6.6639,-6.6687,-6.6752,-6.681,-6.6944,-6.7026,-6.7066,-6.7135,-6.7238,-6.7328,-6.7343,-6.7378,-6.7402,-6.7416,-6.7283,-6.7267,-6.7251,-6.7222,-6.741,-6.7411,-6.7548,-6.7549,-6.755,-6.6071,-6.6123,-6.6213,-6.6319,-6.6396,-6.639,-6.6473,-6.6538,-6.6636,-6.671,-6.6792,-6.6912,-6.701,-6.7071,-6.717,-6.7228,-6.7229,-6.7252,-6.7246,-6.7257,-6.7117,-6.7087,-6.7249,-6.7249,-6.7249,-6.7249,-6.7249,-6.7249,-6.5896,-6.597,-6.605,-6.6148,-6.6209,-6.628,-6.6355,-6.6402,-6.6491,-6.6598,-6.6613,-6.6725,-6.6802,-6.6934,-6.6985,-6.7072,-6.7051,-6.7084,-6.7092,-6.7099,-6.7102,-6.6897,-6.7091,-6.709,-6.709,-6.709,-6.7089,0,-6.5775,-6.5793,-6.5882,-6.5979,-6.6052,-6.613,-6.6205,-6.6253,-6.6299,-6.637,-6.6474,-6.6539,-6.6667,-6.6767,-6.6866,-6.6912,-6.6909,-6.6913,-6.6935,-6.6927,-6.6908,-6.6917,-6.6685,-6.6906,-6.6904,-6.6903,-6.6903,-6.6902,-6.5599,-6.5683,-6.578,-6.5838,-6.5886,-6.598,-6.6042,-6.6076,-6.614,-6.6237,-6.6301,-6.6403,-6.6486,-6.6648,-6.6701,-6.6796,-6.6795,-6.6876,-6.6809,-6.6799,-6.6793,-6.6786,-6.6794,-6.6887,-6.6889,-6.689,-6.6891,0,-6.5496,-6.554,-6.5679,-6.5766,-6.5791,-6.5877,-6.5951,-6.6027,-6.6064,-6.6173,-6.62,-6.6258,-6.636,-6.64,-6.6525,-6.6542,-6.6682,-6.668,-6.6655,-6.6655,-6.673,-6.6721,-6.697,-6.7004,-6.6812,-6.6814,-6.6815,0,-6.5361,-6.547,-6.5529,-6.5607,-6.5729,-6.576,-6.588,-6.5924,-6.5992,-6.6077,-6.6082,-6.6163,-6.6201,-6.6288,-6.6314,-6.6435,-6.6459,-6.6479,-6.6484,-6.6477,-6.6474,-6.6507,-6.6496,-6.6495,-6.6494,-6.6493,-6.6492,0,-6.5193,-6.5353,-6.5481,-6.5524,-6.5628,-6.5687,-6.5733,-6.5808,-6.5868,-6.5952,-6.599,-6.6086,-6.6138,-6.6211,-6.6243,-6.6196,-6.6394,-6.6336,-6.6413,-6.6412,-6.6452,-6.6448,-6.6662,-6.649,-6.649,-6.6489,-6.6489,0,-6.5089,-6.5174,-6.5354,-6.5439,-6.548,-6.5564,-6.566,-6.5742,-6.5821,-6.5843,-6.5909,-6.5915,-6.6027,-6.5966,-6.6119,-6.6048,-6.6098,-6.6128,-6.6134,-6.6143,-6.6072,-6.6183,-6.6386,-6.6407,-6.6156,-6.6153,-6.6151,0,-6.4883,-6.5076,-6.5104,-6.5274,-6.5368,-6.5366,-6.546,-6.553,-6.5567,-6.5651,-6.5692,-6.5788,-6.5751,-6.5786,-6.5857,-6.5902,-6.5994,-6.5891,-6.6008,-6.6012,-6.5984,-6.6172,-6.6191,-6.6338,-6.6116,-6.612,-6.6122,0,-6.4729,-6.4854,-6.4882,-6.4932,-6.503,-6.5109,-6.5218,-6.532,-6.5375,-6.5454,-6.5544,-6.5681,-6.5658,-6.5716,-6.5731,-6.5803,-6.5933,-6.5768,-6.577,-6.5793,-6.6103,-6.6119,-6.6144,-6.5927,-6.5931,-6.5934,-6.6095,0,-6.4557,-6.466,-6.4739,-6.4849,-6.4917,-6.5026,-6.5067,-6.5133,-6.514,-6.5176,-6.5311,-6.5378,-6.5481,-6.552,-6.5528,-6.5681,-6.566,-6.5634,-6.5574,-6.5698,-6.5752,-6.5774,-6.5491,-6.549,-6.5488,-6.5487,0,0,-6.4348,-6.4495,-6.4521,-6.4628,-6.4685,-6.4681,-6.4793,-6.4849,-6.4962,-6.5001,-6.4969,-6.5171,-6.5226,-6.5385,-6.5427,-6.547,-6.55,-6.5454,-6.564,-6.5657,-6.5672,-6.5729,-6.5751,-6.5485,-6.5485,-6.5484,-6.5484,0,-6.4292,-6.4352,-6.4463,-6.4523,-6.4611,-6.4644,-6.4671,-6.4757,-6.4784,-6.4917,-6.4909,-6.4995,-6.5155,-6.5214,-6.5265,-6.5438,-6.5425,-6.5467,-6.5544,-6.5626,-6.5644,-6.5661,-6.572,-6.5741,-6.5481,-6.5481,-6.5481,0,-6.4145,-6.4209,-6.4268,-6.4401,-6.4458,-6.4555,-6.4504,-6.4609,-6.468,-6.4667,-6.4798,-6.4841,-6.4924,-6.5069,-6.5136,-6.5108,-6.5354,-6.5284,-6.5294,-6.53,-6.5381,-6.5403,-6.5423,-6.5161,-6.516,-6.5159,0,0,-6.4092,-6.4187,-6.4265,-6.4392,-6.4429,-6.4478,-6.4534,-6.4546,-6.4622,-6.4652,-6.4705,-6.4778,-6.4871,-6.4932,-6.5021,-6.5176,-6.5194,-6.5243,-6.5258,-6.5271,-6.5284,-6.5368,-6.539,-6.5154,-6.5154,-6.5154,0,0,-6.4065,-6.4161,-6.4155,-6.4307,-6.438,-6.4464,-6.4539,-6.4533,-6.4618,-6.461,-6.4635,-6.4655,-6.4792,-6.4834,-6.4764,-6.5,-6.494,-6.4958,-6.4967,-6.4987,-6.5001,-6.4987,-6.4718,0,0,0,0,0,-6.4029,-6.4149,-6.4143,-6.4174,-6.4342,-6.4468,-6.4489,-6.4513,-6.447,-6.4529,-6.4573,-6.4556,-6.4801,-6.4741,-6.4771,-6.4847,-6.5091,-6.5103,-6.5113,-6.5162,-6.5182,-6.5199,0,0,0,0,0,0,-6.4042,-6.4081,-6.414,-6.4228,-6.4266,-6.4464,-6.4396,-6.4406,-6.4464,-6.4459,-6.4549,-6.4559,-6.4581,-6.4726,-6.4754,-6.4825,-6.4709,-6.5096,-6.5105,-6.5114,-6.5169,-6.5185,-6.5199,0,0,0,0,0,-6.4052,-6.4083,-6.4345,-6.4227,-6.426,-6.432,-6.4392,-6.4399,-6.4445,-6.4512,-6.4522,-6.4457,-6.4582,-6.4607,-6.4743,-6.4812,-6.469,-6.47,-6.5102,-6.5109,-6.5116,-6.5177,0,0,0,0,0,0,-6.406,-6.4091,-6.4352,-6.4363,-6.4183,-6.4309,-6.433,-6.4394,-6.4494,-6.4506,-6.4421,-6.4416,-6.4585,-6.4603,-6.4622,-6.4806,-6.4675,-6.4685,-6.4692,-6.5108,-6.5113,-6.5118,0,0,0,0,0,0,-6.4074,-6.41,-6.4358,-6.4301,-6.4306,-6.4299,-6.4318,-6.4436,-6.4496,-6.4398,-6.4397,-6.4418,-6.4556,-6.4602,-6.4616,-6.48,-6.4663,-6.4673,-6.468,-6.4684,-6.5112,-6.5117,0,0,0,0,0,0,-6.4085,-6.4108,-6.4298,-6.4302,-6.4306,-6.4429,-6.4404,-6.4574,-6.4448,-6.4393,-6.4438,-6.4433,-6.4555,-6.457,-6.4612,-6.479,-6.4798,-6.4664,-6.467,-6.4675,-6.4678,0,0,0,0,0,0,0,-6.4095,-6.3941,-6.4288,-6.4303,-6.4306,-6.4463,-6.4466,-6.4469,-6.4447,-6.4443,-6.4439,-6.4435,-6.4608,-6.4619,-6.4629,-6.4782,0,0,-6.4663,-6.4668,0,0,0,0,0,0,0,0,-6.3932,-6.3938,-6.4288,-6.4291,-6.4293,-6.4464,-6.4466,-6.4468,-6.4447,-6.4443,-6.444,-6.4436,-6.4611,-6.4619,-6.4628,0,0,0,0,0,0,0,0,0,0,0,0,0,0,0,-6.4289,-6.429,0,-6.4464,-6.4466,-6.4468,-6.4446,-6.4443,-6.444,-6.4438,-6.4613,-6.462,-6.4627,0,0,0,0,0,0,0,0,0,0,0,0,0,0,0,0,0,0,0,0,0,0,0,0,0,0,0,0,0,0,0,0,0,0,0,0,0,0,0,0,0,0,0,0,0,0,0,0,0,0,0,0,0,0,0,0,0,0,0,0,0,0,0,0,0,0,0,0,0]}],[{"header":{"parameterUnit":"kt","parameterCategory":2,"dx":1,"dy":1,"la1":30.253999710083008,"la2":30.299108505249023,"lo1":-89.0895004272461,"lo2":-89.04439544677734,"nx":28,"ny":28,"refTime":"2022-10-22T21:00:00:Z","depth":0,"parameterNumber":2,"parameterNumberName":"V-component_of_WINDS"},"data":[7.5702,7.5756,7.5737,7.579,7.5783,7.5815,7.5821,7.5826,7.5826,7.5864,7.5882,7.5869,7.5862,7.5879,7.5898,7.5892,7.59,7.5933,7.5919,7.579,7.5771,7.5753,7.5737,7.5936,7.5936,7.6053,7.6054,7.6055,7.5609,7.5602,7.5625,7.5634,7.5653,7.5611,7.5615,7.5633,7.5664,7.5665,7.5682,7.5713,7.5736,7.5717,7.5736,7.576,7.574,7.5766,7.5762,7.5761,7.5624,7.5608,7.5782,7.5782,7.5782,7.5782,7.5782,7.5782,7.5433,7.5467,7.5461,7.5485,7.5485,7.5492,7.5521,7.5503,7.5526,7.5542,7.5516,7.5551,7.5547,7.5561,7.5561,7.5587,7.5554,7.5576,7.5581,7.5586,7.5594,7.5422,7.559,7.5589,7.5589,7.5588,7.5588,0,7.5298,7.528,7.53,7.5316,7.5333,7.5343,7.5349,7.5366,7.5321,7.5341,7.5369,7.5382,7.5408,7.5431,7.5445,7.5439,7.5395,7.539,7.5404,7.5415,7.5423,7.5416,7.519,7.5384,7.5382,7.5381,7.538,7.5379,7.5117,7.5159,7.5144,7.5161,7.5159,7.5188,7.5201,7.5158,7.5173,7.5174,7.5206,7.523,7.5246,7.5295,7.5273,7.5293,7.527,7.5346,7.5273,7.5283,7.5267,7.5264,7.5267,7.536,7.5362,7.5364,7.5366,0,7.5016,7.4984,7.5043,7.5024,7.502,7.5067,7.505,7.5082,7.5061,7.5102,7.5109,7.5077,7.5105,7.5071,7.5097,7.5078,7.5153,7.5133,7.5153,7.5146,7.5208,7.5201,7.5421,7.5446,7.5244,7.5246,7.5247,0,7.4847,7.4905,7.4853,7.4889,7.4951,7.4905,7.4968,7.4956,7.4951,7.4983,7.4928,7.4959,7.4911,7.4937,7.491,7.4965,7.4971,7.4959,7.495,7.4961,7.4963,7.4966,7.4955,7.4933,7.4932,7.4931,7.493,0,7.4689,7.473,7.4789,7.4793,7.4777,7.4806,7.4801,7.4795,7.4809,7.4821,7.4828,7.4847,7.4856,7.4871,7.4834,7.4785,7.4903,7.4828,7.4889,7.489,7.4913,7.4912,7.5118,7.4928,7.4928,7.4928,7.4927,0,7.4546,7.4559,7.465,7.4634,7.4647,7.4687,7.4699,7.4725,7.4724,7.4708,7.4717,7.4675,7.4722,7.465,7.4714,7.466,7.4673,7.4666,7.467,7.4668,7.4587,7.4703,7.4907,7.4925,7.4672,7.467,7.4668,0,7.4373,7.4456,7.4416,7.4504,7.4537,7.447,7.4513,7.4513,7.4496,7.4521,7.4502,7.4532,7.4471,7.4475,7.4512,7.4492,7.4563,7.4482,7.4517,7.4519,7.4515,7.4703,7.474,7.4867,7.464,7.4643,7.4645,0,7.4234,7.4213,7.4232,7.4233,7.4225,7.4253,7.4304,7.4322,7.4341,7.4348,7.4387,7.443,7.4384,7.4392,7.4359,7.4399,7.4514,7.4345,7.4344,7.4374,7.4624,7.4659,7.468,7.4483,7.4486,7.4489,7.4623,0,7.4019,7.4057,7.4106,7.4112,7.4128,7.4182,7.4143,7.4165,7.4131,7.411,7.4169,7.416,7.4179,7.4196,7.4163,7.4267,7.4243,7.4194,7.4118,7.4243,7.4286,7.4304,7.4057,7.4055,7.4052,7.4051,0,0,7.3859,7.3912,7.3865,7.3911,7.3921,7.3849,7.391,7.3912,7.3917,7.3926,7.3884,7.3942,7.3936,7.4012,7.4048,7.4057,7.4071,7.4028,7.4185,7.42,7.4214,7.426,7.428,7.4047,7.4046,7.4046,7.4045,0,7.3771,7.3767,7.3828,7.3827,7.3824,7.3799,7.3814,7.3799,7.3788,7.3846,7.3785,7.3816,7.3864,7.3865,7.3871,7.402,7.397,7.4029,7.412,7.4165,7.4183,7.4199,7.4249,7.4268,7.404,7.404,7.4041,0,7.3624,7.3612,7.3638,7.3658,7.3655,7.3692,7.3603,7.3646,7.3672,7.359,7.3648,7.3638,7.3636,7.3714,7.3747,7.3709,7.3881,7.3821,7.3833,7.3835,7.3876,7.3898,7.3917,7.3663,7.3662,7.3661,0,0,7.3553,7.3588,7.356,7.3636,7.3639,7.3602,7.3617,7.3583,7.3583,7.3583,7.3568,7.357,7.3597,7.3616,7.3639,7.3731,7.3725,7.3776,7.3794,7.3808,7.3818,7.3864,7.3885,7.3657,7.3657,7.3656,0,0,7.3519,7.3489,7.3454,7.3537,7.3539,7.3516,7.3563,7.3519,7.3536,7.3525,7.3471,7.3469,7.3541,7.3533,7.3479,7.3611,7.3537,7.3549,7.3612,7.3634,7.3652,7.365,7.3385,0,0,0,0,0,7.3407,7.3493,7.3461,7.3469,7.3494,7.3534,7.3537,7.3493,7.3441,7.3479,7.3459,7.3406,7.3492,7.3443,7.3452,7.3511,7.36,7.361,7.362,7.3723,7.3746,7.3766,0,0,0,0,0,0,7.3409,7.3419,7.3459,7.3441,7.3446,7.353,7.3432,7.3422,7.3435,7.3424,7.3412,7.3406,7.3369,7.3436,7.3444,7.3501,7.3382,7.3604,7.3613,7.362,7.3731,7.375,7.3767,0,0,0,0,0,7.3411,7.3419,7.3471,7.3439,7.3443,7.3406,7.3428,7.342,7.3429,7.3398,7.339,7.3395,7.3372,7.3376,7.344,7.3499,7.3375,7.3379,7.361,7.3616,7.3622,7.374,0,0,0,0,0,0,7.3413,7.3411,7.3471,7.3471,7.3403,7.34,7.3398,7.3418,7.34,7.3394,7.3377,7.3369,7.3376,7.3378,7.3382,7.35,7.337,7.3374,7.3376,7.3615,7.362,7.3625,0,0,0,0,0,0,7.3407,7.3412,7.3471,7.3427,7.3422,7.3395,7.3394,7.3442,7.3401,7.3381,7.3373,7.3374,7.337,7.338,7.3382,7.3459,7.3366,7.337,7.3372,7.3373,7.3619,7.3623,0,0,0,0,0,0,7.3408,7.3412,7.3427,7.3423,7.3418,7.3411,7.3437,7.3465,7.3364,7.3383,7.3354,7.3349,7.3374,7.3375,7.3383,7.3459,7.3459,7.3367,7.3369,7.337,7.3371,0,0,0,0,0,0,0,7.3409,7.3392,7.3472,7.3419,7.3414,7.3468,7.3468,7.3468,7.3363,7.3359,7.3355,7.3351,7.3348,7.3351,7.3355,7.346,0,0,7.3366,7.3368,0,0,0,0,0,0,0,0,7.3389,7.3391,7.3472,7.3472,7.3472,7.3468,7.3468,7.3468,7.3362,7.3359,7.3356,7.3353,7.3349,7.3352,7.3355,0,0,0,0,0,0,0,0,0,0,0,0,0,0,0,7.3472,7.3472,0,7.3468,7.3468,7.3468,7.3362,7.3359,7.3356,7.3354,7.335,7.3352,7.3354,0,0,0,0,0,0,0,0,0,0,0,0,0,0,0,0,0,0,0,0,0,0,0,0,0,0,0,0,0,0,0,0,0,0,0,0,0,0,0,0,0,0,0,0,0,0,0,0,0,0,0,0,0,0,0,0,0,0,0,0,0,0,0,0,0,0,0,0,0]}]]]